Year,Month,Day,Hour,Minute,Value (Times are PST for temperature in C)
2016,07,21,00,00,12.80
2016,07,21,00,01,12.70
2016,07,21,00,02,12.70
2016,07,21,00,03,12.70
2016,07,21,00,04,12.70
2016,07,21,00,05,12.70
2016,07,21,00,06,12.70
2016,07,21,00,07,12.70
2016,07,21,00,08,12.70
2016,07,21,00,09,12.70
2016,07,21,00,10,12.70
2016,07,21,00,11,12.70
2016,07,21,00,12,12.70
2016,07,21,00,17,12.70
2016,07,21,00,18,12.60
2016,07,21,00,19,12.60
2016,07,21,00,20,12.60
2016,07,21,00,21,12.60
2016,07,21,00,22,12.60
2016,07,21,00,23,12.60
2016,07,21,00,24,12.60
2016,07,21,00,25,12.60
2016,07,21,00,26,12.70
2016,07,21,00,27,12.60
2016,07,21,00,28,12.60
2016,07,21,00,29,12.60
2016,07,21,00,30,12.60
2016,07,21,00,31,12.60
2016,07,21,00,32,12.60
2016,07,21,00,33,12.60
2016,07,21,00,34,12.60
2016,07,21,00,35,12.60
2016,07,21,00,36,12.60
2016,07,21,00,37,12.70
2016,07,21,00,38,12.70
2016,07,21,00,39,12.70
2016,07,21,00,40,12.70
2016,07,21,00,41,12.70
2016,07,21,00,42,12.70
2016,07,21,00,43,12.70
2016,07,21,00,44,12.70
2016,07,21,00,45,12.70
2016,07,21,00,46,12.70
2016,07,21,00,47,12.70
2016,07,21,00,48,12.70
2016,07,21,00,49,12.70
2016,07,21,00,50,12.70
2016,07,21,00,51,12.70
2016,07,21,00,52,12.70
2016,07,21,00,53,12.70
2016,07,21,00,54,12.60
2016,07,21,00,55,12.60
2016,07,21,00,56,12.60
2016,07,21,00,57,12.60
2016,07,21,00,58,12.70
2016,07,21,00,59,12.70
2016,07,21,01,00,12.60
2016,07,21,01,01,12.70
2016,07,21,01,02,12.60
2016,07,21,01,03,12.60
2016,07,21,01,04,12.60
2016,07,21,01,05,12.60
2016,07,21,01,06,12.60
2016,07,21,01,07,12.60
2016,07,21,01,08,12.60
2016,07,21,01,09,12.50
2016,07,21,01,10,12.50
2016,07,21,01,11,12.50
2016,07,21,01,12,12.50
2016,07,21,01,13,12.50
2016,07,21,01,14,12.50
2016,07,21,01,15,12.50
2016,07,21,01,16,12.40
2016,07,21,01,17,12.40
2016,07,21,01,18,12.40
2016,07,21,01,19,12.50
2016,07,21,01,20,12.50
2016,07,21,01,21,12.50
2016,07,21,01,22,12.60
2016,07,21,01,23,12.60
2016,07,21,01,24,12.60
2016,07,21,01,25,12.60
2016,07,21,01,26,12.60
2016,07,21,01,27,12.60
2016,07,21,01,28,12.60
2016,07,21,01,29,12.50
2016,07,21,01,30,12.50
2016,07,21,01,31,12.50
2016,07,21,01,32,12.50
2016,07,21,01,33,12.50
2016,07,21,01,34,12.60
2016,07,21,01,35,12.60
2016,07,21,01,36,12.60
2016,07,21,01,37,12.60
2016,07,21,01,38,12.60
2016,07,21,01,39,12.60
2016,07,21,01,40,12.60
2016,07,21,01,41,12.60
2016,07,21,01,42,12.60
2016,07,21,01,43,12.60
2016,07,21,01,44,12.60
2016,07,21,01,45,12.60
2016,07,21,01,46,12.60
2016,07,21,01,47,12.60
2016,07,21,01,48,12.60
2016,07,21,01,49,12.60
2016,07,21,01,50,12.60
2016,07,21,01,51,12.60
2016,07,21,01,52,12.60
2016,07,21,01,53,12.60
2016,07,21,01,54,12.60
2016,07,21,01,55,12.60
2016,07,21,01,56,12.60
2016,07,21,01,57,12.60
2016,07,21,01,58,12.60
2016,07,21,01,59,12.60
2016,07,21,02,00,12.60
2016,07,21,02,01,12.60
2016,07,21,02,02,12.60
2016,07,21,02,03,12.60
2016,07,21,02,04,12.60
2016,07,21,02,05,12.60
2016,07,21,02,06,12.60
2016,07,21,02,07,12.70
2016,07,21,02,08,12.70
2016,07,21,02,09,12.70
2016,07,21,02,10,12.80
2016,07,21,02,11,12.80
2016,07,21,02,12,12.80
2016,07,21,02,13,12.80
2016,07,21,02,14,12.70
2016,07,21,02,15,12.70
2016,07,21,02,16,12.70
2016,07,21,02,17,12.70
2016,07,21,02,18,12.60
2016,07,21,02,19,12.60
2016,07,21,02,20,12.60
2016,07,21,02,21,12.50
2016,07,21,02,22,12.50
2016,07,21,02,23,12.50
2016,07,21,02,24,12.50
2016,07,21,02,25,12.50
2016,07,21,02,26,12.50
2016,07,21,02,27,12.50
2016,07,21,02,28,12.40
2016,07,21,02,29,12.40
2016,07,21,02,30,12.40
2016,07,21,02,31,12.40
2016,07,21,02,32,12.40
2016,07,21,02,33,12.40
2016,07,21,02,34,12.40
2016,07,21,02,35,12.50
2016,07,21,02,36,12.40
2016,07,21,02,37,12.50
2016,07,21,02,38,12.50
2016,07,21,02,39,12.50
2016,07,21,02,40,12.50
2016,07,21,02,41,12.60
2016,07,21,02,42,12.60
2016,07,21,02,43,12.60
2016,07,21,02,44,12.50
2016,07,21,02,45,12.50
2016,07,21,02,46,12.40
2016,07,21,02,47,12.40
2016,07,21,02,48,12.40
2016,07,21,02,49,12.30
2016,07,21,02,50,12.30
2016,07,21,02,51,12.30
2016,07,21,02,52,12.30
2016,07,21,02,53,12.30
2016,07,21,02,54,12.30
2016,07,21,02,55,12.30
2016,07,21,02,56,12.20
2016,07,21,02,57,12.30
2016,07,21,02,58,12.30
2016,07,21,02,59,12.30
2016,07,21,03,00,12.30
2016,07,21,03,01,12.30
2016,07,21,03,02,12.30
2016,07,21,03,03,12.30
2016,07,21,03,04,12.30
2016,07,21,03,05,12.30
2016,07,21,03,06,12.30
2016,07,21,03,07,12.30
2016,07,21,03,08,12.30
2016,07,21,03,09,12.30
2016,07,21,03,10,12.30
2016,07,21,03,11,12.30
2016,07,21,03,12,12.30
2016,07,21,03,13,12.30
2016,07,21,03,14,12.30
2016,07,21,03,15,12.20
2016,07,21,03,16,12.20
2016,07,21,03,17,12.20
2016,07,21,03,18,12.20
2016,07,21,03,19,12.10
2016,07,21,03,20,12.10
2016,07,21,03,21,12.10
2016,07,21,03,22,12.10
2016,07,21,03,23,12.10
2016,07,21,03,24,12.10
2016,07,21,03,25,12.10
2016,07,21,03,26,12.10
2016,07,21,03,27,12.10
2016,07,21,03,28,12.10
2016,07,21,03,29,12.10
2016,07,21,03,30,12.10
2016,07,21,03,31,12.10
2016,07,21,03,32,12.10
2016,07,21,03,33,12.00
2016,07,21,03,34,12.00
2016,07,21,03,35,12.00
2016,07,21,03,36,11.90
2016,07,21,03,37,11.90
2016,07,21,03,38,11.90
2016,07,21,03,39,11.90
2016,07,21,03,40,11.90
2016,07,21,03,41,11.90
2016,07,21,03,42,11.90
2016,07,21,03,43,11.90
2016,07,21,03,44,11.90
2016,07,21,03,45,11.90
2016,07,21,03,46,11.80
2016,07,21,03,47,11.80
2016,07,21,03,48,11.80
2016,07,21,03,49,11.80
2016,07,21,03,50,11.80
2016,07,21,03,51,11.80
2016,07,21,03,52,11.80
2016,07,21,03,53,11.80
2016,07,21,03,54,11.80
2016,07,21,03,55,11.80
2016,07,21,03,56,11.80
2016,07,21,03,57,11.70
2016,07,21,03,58,11.70
2016,07,21,03,59,11.70
2016,07,21,04,00,11.70
2016,07,21,04,01,11.70
2016,07,21,04,02,11.70
2016,07,21,04,03,11.70
2016,07,21,04,04,11.70
2016,07,21,04,05,11.80
2016,07,21,04,06,11.80
2016,07,21,04,07,11.80
2016,07,21,04,08,11.80
2016,07,21,04,09,11.80
2016,07,21,04,10,11.80
2016,07,21,04,11,11.80
2016,07,21,04,12,11.80
2016,07,21,04,13,11.80
2016,07,21,04,14,11.80
2016,07,21,04,15,11.80
2016,07,21,04,16,11.80
2016,07,21,04,17,11.80
2016,07,21,04,18,11.80
2016,07,21,04,19,11.80
2016,07,21,04,20,11.70
2016,07,21,04,21,11.70
2016,07,21,04,22,11.70
2016,07,21,04,23,11.70
2016,07,21,04,24,11.70
2016,07,21,04,25,11.70
2016,07,21,04,26,11.70
2016,07,21,04,27,11.70
2016,07,21,04,28,11.70
2016,07,21,04,29,11.70
2016,07,21,04,30,11.70
2016,07,21,04,31,11.70
2016,07,21,04,32,11.80
2016,07,21,04,33,11.80
2016,07,21,04,34,11.80
2016,07,21,04,35,11.80
2016,07,21,04,36,11.80
2016,07,21,04,37,11.80
2016,07,21,04,38,11.80
2016,07,21,04,39,11.70
2016,07,21,04,40,11.70
2016,07,21,04,41,11.70
2016,07,21,04,42,11.60
2016,07,21,04,43,11.60
2016,07,21,04,44,11.60
2016,07,21,04,45,11.60
2016,07,21,04,46,11.60
2016,07,21,04,47,11.60
2016,07,21,04,48,11.60
2016,07,21,04,49,11.60
2016,07,21,04,50,11.60
2016,07,21,04,51,11.60
2016,07,21,04,52,11.60
2016,07,21,04,53,11.60
2016,07,21,04,54,11.60
2016,07,21,04,55,11.60
2016,07,21,04,56,11.60
2016,07,21,04,57,11.60
2016,07,21,04,58,11.60
2016,07,21,04,59,11.60
2016,07,21,05,00,11.60
2016,07,21,05,01,11.60
2016,07,21,05,02,11.60
2016,07,21,05,03,11.60
2016,07,21,05,04,11.60
2016,07,21,05,05,11.60
2016,07,21,05,06,11.60
2016,07,21,05,07,11.60
2016,07,21,05,08,11.50
2016,07,21,05,09,11.50
2016,07,21,05,10,11.50
2016,07,21,05,11,11.50
2016,07,21,05,12,11.50
2016,07,21,05,13,11.50
2016,07,21,05,14,11.50
2016,07,21,05,15,11.50
2016,07,21,05,16,11.50
2016,07,21,05,17,11.40
2016,07,21,05,18,11.40
2016,07,21,05,19,11.40
2016,07,21,05,20,11.40
2016,07,21,05,21,11.50
2016,07,21,05,22,11.50
2016,07,21,05,23,11.50
2016,07,21,05,24,11.60
2016,07,21,05,25,11.60
2016,07,21,05,26,11.50
2016,07,21,05,27,11.50
2016,07,21,05,28,11.40
2016,07,21,05,29,11.40
2016,07,21,05,30,11.40
2016,07,21,05,31,11.40
2016,07,21,05,32,11.40
2016,07,21,05,33,11.40
2016,07,21,05,34,11.40
2016,07,21,05,35,11.40
2016,07,21,05,36,11.40
2016,07,21,05,37,11.40
2016,07,21,05,38,11.30
2016,07,21,05,39,11.30
2016,07,21,05,40,11.30
2016,07,21,05,41,11.30
2016,07,21,05,42,11.30
2016,07,21,05,43,11.30
2016,07,21,05,44,11.30
2016,07,21,05,45,11.30
2016,07,21,05,46,11.30
2016,07,21,05,47,11.30
2016,07,21,05,48,11.30
2016,07,21,05,49,11.30
2016,07,21,05,50,11.30
2016,07,21,05,51,11.30
2016,07,21,05,52,11.30
2016,07,21,05,53,11.30
2016,07,21,05,54,11.30
2016,07,21,05,55,11.30
2016,07,21,05,56,11.30
2016,07,21,05,57,11.30
2016,07,21,05,58,11.30
2016,07,21,05,59,11.30
2016,07,21,06,00,11.30
2016,07,21,06,01,11.30
2016,07,21,06,02,11.30
2016,07,21,06,03,11.30
2016,07,21,06,04,11.30
2016,07,21,06,05,11.30
2016,07,21,06,06,11.30
2016,07,21,06,07,11.40
2016,07,21,06,08,11.40
2016,07,21,06,09,11.40
2016,07,21,06,10,11.40
2016,07,21,06,11,11.40
2016,07,21,06,12,11.40
2016,07,21,06,13,11.30
2016,07,21,06,14,11.30
2016,07,21,06,15,11.40
2016,07,21,06,16,11.40
2016,07,21,06,17,11.40
2016,07,21,06,18,11.50
2016,07,21,06,19,11.50
2016,07,21,06,20,11.60
2016,07,21,06,21,11.60
2016,07,21,06,22,11.60
2016,07,21,06,23,11.60
2016,07,21,06,24,11.70
2016,07,21,06,25,11.70
2016,07,21,06,26,11.70
2016,07,21,06,27,11.60
2016,07,21,06,28,11.60
2016,07,21,06,29,11.60
2016,07,21,06,30,11.60
2016,07,21,06,31,11.60
2016,07,21,06,32,11.60
2016,07,21,06,33,11.60
2016,07,21,06,34,11.60
2016,07,21,06,35,11.60
2016,07,21,06,36,11.60
2016,07,21,06,37,11.60
2016,07,21,06,38,11.50
2016,07,21,06,39,11.60
2016,07,21,06,40,11.60
2016,07,21,06,41,11.60
2016,07,21,06,42,11.60
2016,07,21,06,43,11.70
2016,07,21,06,44,11.70
2016,07,21,06,45,11.70
2016,07,21,06,46,11.70
2016,07,21,06,47,11.80
2016,07,21,06,48,11.80
2016,07,21,06,49,11.90
2016,07,21,06,50,12.00
2016,07,21,06,51,12.00
2016,07,21,06,52,12.10
2016,07,21,06,53,12.20
2016,07,21,06,54,12.20
2016,07,21,06,55,12.20
2016,07,21,06,56,12.20
2016,07,21,06,57,12.20
2016,07,21,06,58,12.20
2016,07,21,06,59,12.20
2016,07,21,07,00,12.20
2016,07,21,07,01,12.20
2016,07,21,07,02,12.20
2016,07,21,07,03,12.20
2016,07,21,07,04,12.30
2016,07,21,07,05,12.30
2016,07,21,07,06,12.40
2016,07,21,07,07,12.40
2016,07,21,07,08,12.50
2016,07,21,07,09,12.60
2016,07,21,07,10,12.60
2016,07,21,07,11,12.70
2016,07,21,07,12,12.70
2016,07,21,07,13,12.80
2016,07,21,07,14,12.80
2016,07,21,07,15,12.90
2016,07,21,07,16,13.00
2016,07,21,07,17,13.10
2016,07,21,07,18,13.10
2016,07,21,07,19,13.20
2016,07,21,07,20,13.20
2016,07,21,07,21,13.30
2016,07,21,07,22,13.30
2016,07,21,07,23,13.30
2016,07,21,07,24,13.30
2016,07,21,07,25,13.30
2016,07,21,07,26,13.40
2016,07,21,07,27,13.40
2016,07,21,07,28,13.40
2016,07,21,07,29,13.50
2016,07,21,07,30,13.50
2016,07,21,07,31,13.60
2016,07,21,07,32,13.60
2016,07,21,07,33,13.70
2016,07,21,07,34,13.70
2016,07,21,07,35,13.80
2016,07,21,07,36,13.80
2016,07,21,07,37,13.90
2016,07,21,07,38,13.90
2016,07,21,07,39,14.00
2016,07,21,07,40,14.00
2016,07,21,07,41,14.00
2016,07,21,07,42,14.10
2016,07,21,07,43,14.10
2016,07,21,07,44,14.20
2016,07,21,07,45,14.30
2016,07,21,07,46,14.30
2016,07,21,07,47,14.40
2016,07,21,07,48,14.40
2016,07,21,07,49,14.40
2016,07,21,07,50,14.50
2016,07,21,07,51,14.50
2016,07,21,07,52,14.50
2016,07,21,07,53,14.60
2016,07,21,07,54,14.60
2016,07,21,07,55,14.60
2016,07,21,07,56,14.70
2016,07,21,07,57,14.70
2016,07,21,07,58,14.70
2016,07,21,07,59,14.70
2016,07,21,08,00,14.80
2016,07,21,08,01,14.80
2016,07,21,08,02,14.90
2016,07,21,08,03,14.90
2016,07,21,08,04,14.90
2016,07,21,08,05,15.00
2016,07,21,08,06,15.00
2016,07,21,08,07,15.00
2016,07,21,08,08,15.10
2016,07,21,08,09,15.10
2016,07,21,08,10,15.10
2016,07,21,08,11,15.20
2016,07,21,08,12,15.20
2016,07,21,08,13,15.20
2016,07,21,08,14,15.30
2016,07,21,08,15,15.30
2016,07,21,08,16,15.40
2016,07,21,08,17,15.40
2016,07,21,08,18,15.50
2016,07,21,08,19,15.60
2016,07,21,08,20,15.60
2016,07,21,08,21,15.70
2016,07,21,08,22,15.80
2016,07,21,08,23,15.90
2016,07,21,08,24,15.90
2016,07,21,08,25,16.00
2016,07,21,08,26,16.10
2016,07,21,08,27,16.10
2016,07,21,08,28,16.20
2016,07,21,08,29,16.30
2016,07,21,08,30,16.30
2016,07,21,08,31,16.40
2016,07,21,08,32,16.40
2016,07,21,08,33,16.40
2016,07,21,08,34,16.50
2016,07,21,08,35,16.50
2016,07,21,08,36,16.60
2016,07,21,08,37,16.60
2016,07,21,08,38,16.70
2016,07,21,08,39,16.80
2016,07,21,08,40,16.80
2016,07,21,08,41,16.90
2016,07,21,08,42,17.00
2016,07,21,08,43,17.10
2016,07,21,08,44,17.20
2016,07,21,08,45,17.30
2016,07,21,08,46,17.30
2016,07,21,08,47,17.20
2016,07,21,08,48,17.30
2016,07,21,08,49,17.30
2016,07,21,08,50,17.30
2016,07,21,08,51,17.30
2016,07,21,08,52,17.30
2016,07,21,08,53,17.20
2016,07,21,08,54,17.10
2016,07,21,08,55,17.00
2016,07,21,08,56,16.80
2016,07,21,08,57,16.70
2016,07,21,08,58,16.60
2016,07,21,08,59,16.50
2016,07,21,09,00,16.40
2016,07,21,09,01,16.40
2016,07,21,09,02,16.30
2016,07,21,09,03,16.20
2016,07,21,09,04,16.10
2016,07,21,09,05,16.00
2016,07,21,09,06,16.00
2016,07,21,09,07,16.00
2016,07,21,09,08,15.90
2016,07,21,09,09,15.90
2016,07,21,09,10,15.80
2016,07,21,09,11,15.80
2016,07,21,09,12,15.70
2016,07,21,09,13,15.70
2016,07,21,09,14,15.70
2016,07,21,09,15,15.60
2016,07,21,09,16,15.60
2016,07,21,09,17,15.50
2016,07,21,09,18,15.50
2016,07,21,09,19,15.50
2016,07,21,09,20,15.50
2016,07,21,09,21,15.50
2016,07,21,09,22,15.50
2016,07,21,09,23,15.50
2016,07,21,09,24,15.60
2016,07,21,09,25,15.60
2016,07,21,09,26,15.60
2016,07,21,09,27,15.70
2016,07,21,09,28,15.70
2016,07,21,09,29,15.80
2016,07,21,09,30,15.80
2016,07,21,09,31,15.80
2016,07,21,09,32,15.90
2016,07,21,09,33,15.90
2016,07,21,09,34,15.90
2016,07,21,09,35,15.90
2016,07,21,09,36,15.90
2016,07,21,09,37,15.90
2016,07,21,09,38,15.90
2016,07,21,09,39,15.90
2016,07,21,09,40,15.90
2016,07,21,09,41,15.90
2016,07,21,09,42,16.00
2016,07,21,09,43,16.10
2016,07,21,09,44,16.10
2016,07,21,09,45,16.20
2016,07,21,09,46,16.20
2016,07,21,09,47,16.20
2016,07,21,09,48,16.20
2016,07,21,09,49,16.20
2016,07,21,09,50,16.10
2016,07,21,09,51,16.10
2016,07,21,09,52,16.10
2016,07,21,09,53,16.10
2016,07,21,09,54,16.10
2016,07,21,09,55,16.10
2016,07,21,09,56,16.20
2016,07,21,09,57,16.20
2016,07,21,09,58,16.30
2016,07,21,09,59,16.40
2016,07,21,10,00,16.50
2016,07,21,10,01,16.60
2016,07,21,10,02,16.60
2016,07,21,10,03,16.60
2016,07,21,10,04,16.60
2016,07,21,10,05,16.60
2016,07,21,10,06,16.50
2016,07,21,10,07,16.40
2016,07,21,10,08,16.30
2016,07,21,10,09,16.30
2016,07,21,10,10,16.30
2016,07,21,10,11,16.30
2016,07,21,10,12,16.30
2016,07,21,10,13,16.30
2016,07,21,10,14,16.30
2016,07,21,10,15,16.30
2016,07,21,10,16,16.30
2016,07,21,10,17,16.40
2016,07,21,10,18,16.50
2016,07,21,10,19,16.60
2016,07,21,10,20,16.60
2016,07,21,10,21,16.70
2016,07,21,10,22,16.70
2016,07,21,10,23,16.60
2016,07,21,10,24,16.60
2016,07,21,10,25,16.60
2016,07,21,10,26,16.60
2016,07,21,10,27,16.60
2016,07,21,10,28,16.60
2016,07,21,10,29,16.60
2016,07,21,10,30,16.60
2016,07,21,10,31,16.60
2016,07,21,10,32,16.50
2016,07,21,10,33,16.60
2016,07,21,10,34,16.60
2016,07,21,10,35,16.60
2016,07,21,10,36,16.70
2016,07,21,10,37,16.70
2016,07,21,10,38,16.80
2016,07,21,10,39,16.90
2016,07,21,10,40,17.00
2016,07,21,10,41,17.10
2016,07,21,10,42,17.20
2016,07,21,10,43,17.30
2016,07,21,10,44,17.40
2016,07,21,10,45,17.50
2016,07,21,10,46,17.60
2016,07,21,10,47,17.60
2016,07,21,10,48,17.60
2016,07,21,10,49,17.60
2016,07,21,10,50,17.60
2016,07,21,10,51,17.50
2016,07,21,10,52,17.40
2016,07,21,10,53,17.30
2016,07,21,10,54,17.20
2016,07,21,10,55,17.10
2016,07,21,10,56,17.00
2016,07,21,10,57,16.90
2016,07,21,10,58,16.80
2016,07,21,10,59,16.60
2016,07,21,11,00,16.50
2016,07,21,11,01,16.40
2016,07,21,11,02,16.30
2016,07,21,11,03,16.30
2016,07,21,11,04,16.30
2016,07,21,11,05,16.40
2016,07,21,11,06,16.50
2016,07,21,11,07,16.60
2016,07,21,11,08,16.70
2016,07,21,11,09,16.90
2016,07,21,11,10,17.00
2016,07,21,11,11,17.10
2016,07,21,11,12,17.10
2016,07,21,11,13,17.20
2016,07,21,11,14,17.30
2016,07,21,11,15,17.40
2016,07,21,11,16,17.50
2016,07,21,11,17,17.60
2016,07,21,11,18,17.70
2016,07,21,11,19,17.80
2016,07,21,11,20,17.90
2016,07,21,11,21,18.00
2016,07,21,11,22,18.10
2016,07,21,11,23,18.10
2016,07,21,11,24,18.00
2016,07,21,11,25,17.90
2016,07,21,11,26,17.90
2016,07,21,11,27,17.90
2016,07,21,11,28,17.90
2016,07,21,11,29,18.00
2016,07,21,11,30,18.00
2016,07,21,11,31,18.10
2016,07,21,11,32,18.20
2016,07,21,11,33,18.30
2016,07,21,11,34,18.30
2016,07,21,11,35,18.40
2016,07,21,11,36,18.50
2016,07,21,11,37,18.60
2016,07,21,11,38,18.70
2016,07,21,11,39,18.80
2016,07,21,11,40,18.80
2016,07,21,11,41,18.80
2016,07,21,11,42,18.90
2016,07,21,11,43,18.90
2016,07,21,11,44,18.90
2016,07,21,11,45,18.90
2016,07,21,11,46,18.80
2016,07,21,11,47,18.80
2016,07,21,11,48,18.70
2016,07,21,11,49,18.70
2016,07,21,11,50,18.70
2016,07,21,11,51,18.70
2016,07,21,11,52,18.70
2016,07,21,11,53,18.70
2016,07,21,11,54,18.70
2016,07,21,11,55,18.80
2016,07,21,11,56,18.80
2016,07,21,11,57,18.90
2016,07,21,11,58,19.00
2016,07,21,11,59,19.10
2016,07,21,12,00,19.30
2016,07,21,12,01,19.40
2016,07,21,12,02,19.50
2016,07,21,12,03,19.50
2016,07,21,12,04,19.60
2016,07,21,12,05,19.60
2016,07,21,12,06,19.70
2016,07,21,12,07,19.70
2016,07,21,12,08,19.70
2016,07,21,12,09,19.70
2016,07,21,12,10,19.80
2016,07,21,12,11,19.80
2016,07,21,12,12,19.70
2016,07,21,12,13,19.70
2016,07,21,12,14,19.70
2016,07,21,12,15,19.80
2016,07,21,12,16,19.80
2016,07,21,12,17,19.80
2016,07,21,12,18,19.80
2016,07,21,12,19,19.90
2016,07,21,12,20,19.90
2016,07,21,12,21,19.80
2016,07,21,12,22,19.80
2016,07,21,12,23,19.80
2016,07,21,12,24,19.80
2016,07,21,12,25,19.80
2016,07,21,12,26,19.80
2016,07,21,12,27,19.70
2016,07,21,12,28,19.80
2016,07,21,12,29,19.80
2016,07,21,12,30,19.90
2016,07,21,12,31,19.90
2016,07,21,12,32,20.00
2016,07,21,12,33,20.10
2016,07,21,12,34,20.20
2016,07,21,12,35,20.20
2016,07,21,12,36,20.20
2016,07,21,12,37,20.20
2016,07,21,12,38,20.20
2016,07,21,12,39,20.20
2016,07,21,12,40,20.20
2016,07,21,12,41,20.10
2016,07,21,12,42,20.10
2016,07,21,12,43,20.10
2016,07,21,12,44,20.20
2016,07,21,12,45,20.20
2016,07,21,12,46,20.20
2016,07,21,12,47,20.20
2016,07,21,12,48,20.20
2016,07,21,12,49,20.20
2016,07,21,12,50,20.30
2016,07,21,12,51,20.30
2016,07,21,12,52,20.40
2016,07,21,12,53,20.40
2016,07,21,12,54,20.50
2016,07,21,12,55,20.70
2016,07,21,12,56,20.80
2016,07,21,12,57,20.90
2016,07,21,12,58,20.90
2016,07,21,12,59,20.80
2016,07,21,13,00,20.60
2016,07,21,13,01,20.40
2016,07,21,13,02,20.30
2016,07,21,13,03,20.20
2016,07,21,13,04,20.00
2016,07,21,13,05,19.90
2016,07,21,13,06,19.70
2016,07,21,13,07,19.60
2016,07,21,13,08,19.50
2016,07,21,13,09,19.40
2016,07,21,13,10,19.40
2016,07,21,13,11,19.40
2016,07,21,13,12,19.40
2016,07,21,13,13,19.30
2016,07,21,13,14,19.40
2016,07,21,13,15,19.40
2016,07,21,13,16,19.50
2016,07,21,13,17,19.50
2016,07,21,13,18,19.60
2016,07,21,13,19,19.70
2016,07,21,13,20,19.70
2016,07,21,13,21,19.80
2016,07,21,13,22,19.80
2016,07,21,13,23,19.80
2016,07,21,13,24,19.80
2016,07,21,13,25,19.80
2016,07,21,13,26,19.90
2016,07,21,13,27,19.90
2016,07,21,13,28,19.90
2016,07,21,13,29,20.00
2016,07,21,13,30,20.10
2016,07,21,13,31,20.20
2016,07,21,13,32,20.40
2016,07,21,13,33,20.50
2016,07,21,13,34,20.70
2016,07,21,13,35,20.90
2016,07,21,13,36,21.00
2016,07,21,13,37,21.20
2016,07,21,13,38,21.30
2016,07,21,13,39,21.50
2016,07,21,13,40,21.60
2016,07,21,13,41,21.70
2016,07,21,13,42,21.70
2016,07,21,13,43,21.70
2016,07,21,13,44,21.70
2016,07,21,13,45,21.70
2016,07,21,13,46,21.60
2016,07,21,13,47,21.50
2016,07,21,13,48,21.30
2016,07,21,13,49,21.10
2016,07,21,13,50,21.00
2016,07,21,13,51,20.80
2016,07,21,13,52,20.50
2016,07,21,13,53,20.30
2016,07,21,13,54,20.10
2016,07,21,13,55,19.90
2016,07,21,13,56,19.80
2016,07,21,13,57,19.60
2016,07,21,13,58,19.40
2016,07,21,13,59,19.30
2016,07,21,14,00,19.20
2016,07,21,14,01,19.10
2016,07,21,14,02,19.10
2016,07,21,14,03,19.00
2016,07,21,14,04,19.00
2016,07,21,14,05,19.00
2016,07,21,14,06,19.00
2016,07,21,14,07,19.00
2016,07,21,14,08,19.10
2016,07,21,14,09,19.10
2016,07,21,14,10,19.10
2016,07,21,14,11,19.00
2016,07,21,14,12,19.00
2016,07,21,14,13,18.90
2016,07,21,14,14,18.80
2016,07,21,14,15,18.70
2016,07,21,14,16,18.60
2016,07,21,14,17,18.50
2016,07,21,14,18,18.40
2016,07,21,14,19,18.30
2016,07,21,14,20,18.30
2016,07,21,14,21,18.30
2016,07,21,14,22,18.30
2016,07,21,14,23,18.40
2016,07,21,14,24,18.50
2016,07,21,14,25,18.60
2016,07,21,14,26,18.70
2016,07,21,14,27,18.80
2016,07,21,14,28,19.00
2016,07,21,14,29,19.20
2016,07,21,14,30,19.40
2016,07,21,14,31,19.60
2016,07,21,14,32,19.80
2016,07,21,14,33,19.90
2016,07,21,14,34,20.10
2016,07,21,14,35,20.20
2016,07,21,14,36,20.40
2016,07,21,14,37,20.50
2016,07,21,14,38,20.60
2016,07,21,14,39,20.70
2016,07,21,14,40,20.80
2016,07,21,14,41,20.90
2016,07,21,14,42,21.00
2016,07,21,14,43,21.10
2016,07,21,14,44,21.20
2016,07,21,14,45,21.30
2016,07,21,14,46,21.40
2016,07,21,14,47,21.50
2016,07,21,14,48,21.50
2016,07,21,14,49,21.60
2016,07,21,14,50,21.70
2016,07,21,14,51,21.60
2016,07,21,14,52,21.60
2016,07,21,14,53,21.60
2016,07,21,14,54,21.60
2016,07,21,14,55,21.60
2016,07,21,14,56,21.60
2016,07,21,14,57,21.60
2016,07,21,14,58,21.60
2016,07,21,14,59,21.60
2016,07,21,15,00,21.70
2016,07,21,15,01,21.70
2016,07,21,15,02,21.80
2016,07,21,15,03,21.80
2016,07,21,15,04,21.90
2016,07,21,15,05,22.00
2016,07,21,15,06,22.10
2016,07,21,15,07,22.20
2016,07,21,15,08,22.40
2016,07,21,15,09,22.50
2016,07,21,15,10,22.60
2016,07,21,15,11,22.80
2016,07,21,15,12,22.90
2016,07,21,15,13,23.10
2016,07,21,15,14,23.20
2016,07,21,15,15,23.40
2016,07,21,15,16,23.60
2016,07,21,15,17,23.70
2016,07,21,15,18,23.70
2016,07,21,15,19,23.80
2016,07,21,15,20,23.90
2016,07,21,15,21,23.90
2016,07,21,15,22,24.00
2016,07,21,15,23,24.00
2016,07,21,15,24,24.00
2016,07,21,15,25,24.10
2016,07,21,15,26,24.10
2016,07,21,15,27,24.00
2016,07,21,15,28,23.90
2016,07,21,15,29,23.90
2016,07,21,15,30,23.80
2016,07,21,15,31,23.80
2016,07,21,15,32,23.90
2016,07,21,15,33,23.90
2016,07,21,15,34,23.80
2016,07,21,15,35,23.70
2016,07,21,15,36,23.60
2016,07,21,15,37,23.50
2016,07,21,15,38,23.40
2016,07,21,15,39,23.40
2016,07,21,15,40,23.40
2016,07,21,15,41,23.30
2016,07,21,15,42,23.20
2016,07,21,15,43,23.20
2016,07,21,15,44,23.20
2016,07,21,15,45,23.10
2016,07,21,15,46,23.10
2016,07,21,15,47,23.00
2016,07,21,15,48,22.80
2016,07,21,15,49,22.80
2016,07,21,15,50,22.90
2016,07,21,15,51,22.80
2016,07,21,15,52,22.80
2016,07,21,15,53,22.90
2016,07,21,15,54,22.90
2016,07,21,15,55,23.00
2016,07,21,15,56,23.00
2016,07,21,15,57,23.10
2016,07,21,15,58,23.10
2016,07,21,15,59,23.20
2016,07,21,16,00,23.30
2016,07,21,16,01,23.30
2016,07,21,16,02,23.30
2016,07,21,16,03,23.30
2016,07,21,16,04,23.30
2016,07,21,16,05,23.20
2016,07,21,16,06,23.00
2016,07,21,16,07,22.80
2016,07,21,16,08,22.50
2016,07,21,16,09,22.10
2016,07,21,16,10,21.70
2016,07,21,16,11,21.40
2016,07,21,16,12,21.20
2016,07,21,16,13,21.00
2016,07,21,16,14,21.00
2016,07,21,16,15,20.90
2016,07,21,16,16,20.90
2016,07,21,16,17,20.90
2016,07,21,16,18,21.00
2016,07,21,16,19,21.00
2016,07,21,16,20,21.00
2016,07,21,16,21,21.00
2016,07,21,16,22,20.90
2016,07,21,16,23,20.70
2016,07,21,16,24,20.60
2016,07,21,16,25,20.50
2016,07,21,16,26,20.40
2016,07,21,16,27,20.30
2016,07,21,16,28,20.30
2016,07,21,16,29,20.30
2016,07,21,16,30,20.30
2016,07,21,16,31,20.40
2016,07,21,16,32,20.50
2016,07,21,16,33,20.50
2016,07,21,16,34,20.40
2016,07,21,16,35,20.40
2016,07,21,16,36,20.40
2016,07,21,16,37,20.40
2016,07,21,16,38,20.40
2016,07,21,16,39,20.40
2016,07,21,16,40,20.40
2016,07,21,16,41,20.40
2016,07,21,16,42,20.40
2016,07,21,16,43,20.40
2016,07,21,16,44,20.40
2016,07,21,16,45,20.50
2016,07,21,16,46,20.50
2016,07,21,16,47,20.60
2016,07,21,16,48,20.50
2016,07,21,16,49,20.40
2016,07,21,16,50,20.30
2016,07,21,16,51,20.30
2016,07,21,16,52,20.20
2016,07,21,16,53,20.10
2016,07,21,16,54,20.10
2016,07,21,16,55,20.10
2016,07,21,16,56,20.20
2016,07,21,16,57,20.30
2016,07,21,16,58,20.30
2016,07,21,16,59,20.40
2016,07,21,17,00,20.50
2016,07,21,17,01,20.60
2016,07,21,17,02,20.70
2016,07,21,17,03,20.90
2016,07,21,17,04,21.00
2016,07,21,17,05,21.00
2016,07,21,17,06,21.10
2016,07,21,17,07,21.20
2016,07,21,17,08,21.30
2016,07,21,17,09,21.40
2016,07,21,17,10,21.40
2016,07,21,17,11,21.50
2016,07,21,17,12,21.50
2016,07,21,17,13,21.50
2016,07,21,17,14,21.50
2016,07,21,17,15,21.60
2016,07,21,17,16,21.60
2016,07,21,17,17,21.60
2016,07,21,17,18,21.70
2016,07,21,17,19,21.70
2016,07,21,17,20,21.80
2016,07,21,17,21,21.80
2016,07,21,17,22,21.90
2016,07,21,17,23,21.90